AFL1200 UUEE-USPP

Flight info

Callsign AFL1200
Flight time N/A
Altitude 35000
Route N0460F350 OLMUN T629 IPSIL T830 LAMGU N604 OGSIN P983 SUMOM
Aircraft B738/M-V/N

Departure

Time N/A
Airport Sheremetyevo International Airport (UUEE)

Arrival

Time 2026-04-16 15:35
Airport Perm International Airport (USPP)
Time Latitude Longitude Altitude Speed Heading
2026-04-16 14:35 57.06706 44.69741 37200 ft 450 kts 74°
2026-04-16 14:36 57.08308 44.80848 37198 ft 450 kts 74°
2026-04-16 14:36 57.09901 44.91965 37199 ft 449 kts 74°
2026-04-16 14:37 57.11472 45.03017 37203 ft 449 kts 74°
2026-04-16 14:37 57.13045 45.14150 37199 ft 450 kts 74°
2026-04-16 14:38 57.14609 45.25305 37202 ft 450 kts 74°
2026-04-16 14:38 57.16164 45.36474 37207 ft 450 kts 74°
2026-04-16 14:39 57.17709 45.47655 37205 ft 450 kts 75°
2026-04-16 14:39 57.19245 45.58850 37205 ft 450 kts 75°
2026-04-16 14:40 57.20771 45.70054 37208 ft 450 kts 75°
2026-04-16 14:40 57.22286 45.81263 37210 ft 450 kts 75°
2026-04-16 14:41 57.23784 45.92422 37212 ft 450 kts 75°
2026-04-16 14:41 57.25281 46.03662 37214 ft 451 kts 75°
2026-04-16 14:42 57.26768 46.14910 37214 ft 451 kts 75°
2026-04-16 14:42 57.28246 46.26177 37213 ft 451 kts 75°
2026-04-16 14:43 57.29714 46.37452 37216 ft 451 kts 75°
2026-04-16 14:43 57.31172 46.48737 37223 ft 451 kts 75°
2026-04-16 14:44 57.32610 46.59951 37224 ft 451 kts 75°
2026-04-16 14:44 57.34050 46.71255 37230 ft 451 kts 75°
2026-04-16 14:45 57.35919 46.82303 37237 ft 449 kts 65°
2026-04-16 14:45 57.38537 46.92832 37230 ft 450 kts 64°
2026-04-16 14:46 57.41161 47.03359 37235 ft 450 kts 64°
2026-04-16 14:46 57.43733 47.13947 37236 ft 449 kts 65°
2026-04-16 14:47 57.46276 47.24542 37233 ft 449 kts 65°
2026-04-16 14:47 57.48796 47.35080 37236 ft 448 kts 65°
2026-04-16 14:48 57.51321 47.45679 37239 ft 448 kts 65°
2026-04-16 14:48 57.53838 47.56280 37244 ft 447 kts 65°
2026-04-16 14:49 57.56347 47.66895 37246 ft 448 kts 65°
2026-04-16 14:49 57.58851 47.77546 37250 ft 450 kts 65°
2026-04-16 14:50 57.61355 47.88246 37242 ft 451 kts 65°
2026-04-16 14:50 57.63842 47.98931 37240 ft 452 kts 65°
2026-04-16 14:51 57.66356 48.09788 37240 ft 452 kts 65°
2026-04-16 14:51 57.68825 48.20502 37238 ft 451 kts 65°
2026-04-16 14:53 57.75883 48.58870 37240 ft 452 kts 82°
2026-04-16 14:53 57.76263 48.64704 37234 ft 451 kts 82°
2026-04-16 14:54 57.77017 48.76351 37234 ft 449 kts 82°
2026-04-16 14:54 57.77804 48.87967 37247 ft 450 kts 81°
2026-04-16 14:55 57.78605 48.99596 37239 ft 451 kts 81°
2026-04-16 14:55 57.79401 49.11246 37253 ft 450 kts 81°
2026-04-16 14:56 57.80186 49.22906 37239 ft 450 kts 81°
2026-04-16 14:56 57.80960 49.34573 37238 ft 450 kts 81°
2026-04-16 14:57 57.81721 49.46232 37244 ft 450 kts 81°
2026-04-16 14:57 57.82471 49.57885 37256 ft 450 kts 82°
2026-04-16 14:58 57.83573 49.75328 37251 ft 452 kts 82°
2026-04-16 14:59 57.84301 49.87050 37247 ft 453 kts 82°
2026-04-16 14:59 57.85020 49.98802 37251 ft 453 kts 82°
2026-04-16 15:00 57.85727 50.10518 37241 ft 450 kts 82°
2026-04-16 15:00 57.86425 50.22173 37250 ft 449 kts 82°
2026-04-16 15:01 57.87114 50.33836 37245 ft 449 kts 82°
2026-04-16 15:01 57.87791 50.45502 37252 ft 450 kts 82°
2026-04-16 15:02 57.88457 50.57150 37253 ft 452 kts 82°
2026-04-16 15:02 57.89119 50.68931 37254 ft 454 kts 82°
2026-04-16 15:03 57.89773 50.80774 37245 ft 455 kts 82°
2026-04-16 15:03 57.90416 50.92610 37253 ft 455 kts 82°
2026-04-16 15:04 57.91046 51.04439 37260 ft 454 kts 82°
2026-04-16 15:04 57.91662 51.16185 37245 ft 454 kts 82°
2026-04-16 15:05 57.92269 51.27994 37248 ft 453 kts 82°
2026-04-16 15:05 57.92866 51.39771 37249 ft 452 kts 82°
2026-04-16 15:06 57.93449 51.51532 37249 ft 451 kts 82°
2026-04-16 15:06 57.94020 51.63256 37250 ft 450 kts 82°
2026-04-16 15:07 57.94581 51.74963 37254 ft 449 kts 82°
2026-04-16 15:07 57.95130 51.86662 37248 ft 448 kts 82°
2026-04-16 15:08 57.95669 51.98351 37250 ft 448 kts 82°
2026-04-16 15:08 57.96110 52.08068 37254 ft 448 kts 82°
2026-04-16 15:09 57.96630 52.19782 37254 ft 450 kts 82°
2026-04-16 15:09 57.97144 52.31557 37258 ft 452 kts 82°
2026-04-16 15:10 57.97649 52.43384 36906 ft 451 kts 82°
2026-04-16 15:10 57.97894 52.49238 36650 ft 445 kts 82°
2026-04-16 15:10 57.98135 52.55043 36402 ft 446 kts 82°
2026-04-16 15:10 57.98376 52.60890 36156 ft 448 kts 82°
2026-04-16 15:11 57.98614 52.66733 35900 ft 446 kts 82°
2026-04-16 15:11 57.98848 52.72544 35643 ft 444 kts 82°
2026-04-16 15:11 57.99079 52.78342 35397 ft 442 kts 82°
2026-04-16 15:11 57.99305 52.84110 35154 ft 441 kts 82°
2026-04-16 15:12 57.99526 52.89800 34913 ft 440 kts 82°
2026-04-16 15:12 57.99747 52.95544 34672 ft 439 kts 82°
2026-04-16 15:12 57.99965 53.01287 34428 ft 438 kts 82°
2026-04-16 15:12 58.00179 53.07002 34184 ft 437 kts 82°
2026-04-16 15:13 58.00391 53.12728 33892 ft 436 kts 82°
2026-04-16 15:13 58.00600 53.18424 33149 ft 436 kts 83°
2026-04-16 15:13 58.00806 53.24129 32465 ft 436 kts 83°
2026-04-16 15:13 58.01010 53.29840 31760 ft 436 kts 83°
2026-04-16 15:14 58.01213 53.35568 31010 ft 438 kts 83°
2026-04-16 15:14 58.01413 53.41300 30250 ft 440 kts 83°
2026-04-16 15:14 58.01611 53.47065 29440 ft 440 kts 83°
2026-04-16 15:14 58.01801 53.52712 28876 ft 435 kts 83°
2026-04-16 15:15 58.01989 53.58382 28322 ft 430 kts 83°
2026-04-16 15:15 58.02173 53.63990 27746 ft 427 kts 83°
2026-04-16 15:15 58.02354 53.69557 27192 ft 422 kts 83°
2026-04-16 15:15 58.02533 53.75086 26637 ft 426 kts 83°
2026-04-16 15:16 58.02716 53.80756 26079 ft 437 kts 83°
2026-04-16 15:16 58.02896 53.86499 25493 ft 437 kts 83°
2026-04-16 15:16 58.03071 53.92205 24923 ft 433 kts 83°
2026-04-16 15:16 58.03241 53.97857 24356 ft 430 kts 83°
2026-04-16 15:17 58.03410 54.03470 23576 ft 430 kts 83°
2026-04-16 15:17 58.03582 54.09124 22852 ft 429 kts 83°
2026-04-16 15:17 58.03750 54.14714 22236 ft 425 kts 83°
2026-04-16 15:17 58.03914 54.20249 21650 ft 420 kts 83°
2026-04-16 15:18 58.04074 54.25724 21094 ft 416 kts 83°
2026-04-16 15:18 58.04231 54.31155 20547 ft 412 kts 83°
2026-04-16 15:18 58.04384 54.36534 20005 ft 409 kts 83°
2026-04-16 15:18 58.04532 54.41797 19478 ft 405 kts 83°
2026-04-16 15:19 58.04680 54.47163 18940 ft 403 kts 83°
2026-04-16 15:19 58.04824 54.52426 18370 ft 401 kts 83°
2026-04-16 15:19 58.04964 54.57666 17782 ft 398 kts 83°
2026-04-16 15:19 58.05100 54.62812 17235 ft 395 kts 83°
2026-04-16 15:20 58.05235 54.67969 16696 ft 391 kts 83°
2026-04-16 15:20 58.05366 54.73081 16173 ft 388 kts 83°
2026-04-16 15:20 58.05496 54.78147 15658 ft 384 kts 82°
2026-04-16 15:20 58.05725 54.83155 15072 ft 382 kts 80°
2026-04-16 15:21 58.06035 54.88118 14560 ft 379 kts 79°
2026-04-16 15:21 58.06369 54.93034 14043 ft 376 kts 78°
2026-04-16 15:21 58.06701 54.97912 13476 ft 373 kts 79°
2026-04-16 15:21 58.07024 55.02745 12940 ft 369 kts 79°
2026-04-16 15:22 58.07335 55.07531 12433 ft 366 kts 79°
2026-04-16 15:22 58.07634 55.12230 11937 ft 362 kts 79°
2026-04-16 15:22 58.07928 55.16933 11456 ft 359 kts 79°
2026-04-16 15:22 58.08215 55.21577 11137 ft 351 kts 80°
2026-04-16 15:23 58.08488 55.26079 10995 ft 338 kts 80°
2026-04-16 15:23 58.08751 55.30427 10846 ft 327 kts 80°
2026-04-16 15:23 58.09004 55.34632 10717 ft 317 kts 80°
2026-04-16 15:23 58.09248 55.38699 10582 ft 306 kts 79°
2026-04-16 15:24 58.09483 55.42644 10463 ft 297 kts 79°
2026-04-16 15:24 58.09710 55.46465 10336 ft 288 kts 79°
2026-04-16 15:24 58.09931 55.50185 10162 ft 282 kts 79°
2026-04-16 15:24 58.10148 55.53861 9865 ft 280 kts 79°
2026-04-16 15:25 58.10363 55.57505 9575 ft 278 kts 80°
2026-04-16 15:25 58.10575 55.61127 9297 ft 275 kts 80°
2026-04-16 15:25 58.10784 55.64711 9017 ft 273 kts 80°
2026-04-16 15:25 58.10990 55.68267 8739 ft 271 kts 81°
2026-04-16 15:26 58.11190 55.71749 8477 ft 269 kts 81°
2026-04-16 15:26 58.11390 55.75246 8206 ft 267 kts 81°
2026-04-16 15:26 58.11588 55.78726 7937 ft 265 kts 81°
2026-04-16 15:26 58.11784 55.82181 7664 ft 263 kts 81°
2026-04-16 15:27 58.11977 55.85611 7410 ft 261 kts 81°
2026-04-16 15:27 58.12168 55.89019 7142 ft 260 kts 82°
2026-04-16 15:27 58.12357 55.92412 6880 ft 258 kts 82°
2026-04-16 15:27 58.12544 55.95782 6620 ft 257 kts 82°
2026-04-16 15:28 58.12729 55.99132 6350 ft 255 kts 82°
2026-04-16 15:28 58.12914 56.02466 6079 ft 254 kts 82°
2026-04-16 15:28 58.13095 56.05772 5820 ft 252 kts 82°
2026-04-16 15:28 58.13274 56.09058 5561 ft 250 kts 83°
2026-04-16 15:29 58.13450 56.12322 5312 ft 248 kts 83°
2026-04-16 15:29 58.13618 56.15473 5228 ft 238 kts 84°
2026-04-16 15:29 58.13393 56.18514 5120 ft 236 kts 114°
2026-04-16 15:29 58.12433 56.21022 5039 ft 237 kts 133°
2026-04-16 15:30 58.11241 56.23199 4938 ft 238 kts 136°
2026-04-16 15:30 58.10029 56.25337 4806 ft 239 kts 136°
2026-04-16 15:30 58.08813 56.27500 4536 ft 239 kts 136°
2026-04-16 15:30 58.07428 56.29092 4151 ft 233 kts 168°
2026-04-16 15:31 58.05907 56.28713 3834 ft 217 kts 210°
2026-04-16 15:31 58.04685 56.27131 3533 ft 210 kts 219°
2026-04-16 15:31 58.03569 56.25452 3283 ft 198 kts 221°
2026-04-16 15:31 58.02597 56.23806 3058 ft 185 kts 226°
2026-04-16 15:32 58.01713 56.22132 2863 ft 176 kts 227°
2026-04-16 15:32 58.00859 56.20466 2729 ft 178 kts 228°
2026-04-16 15:32 58.00013 56.18774 2493 ft 175 kts 229°
2026-04-16 15:32 57.99217 56.17148 2287 ft 162 kts 227°
2026-04-16 15:33 57.98431 56.15672 2051 ft 154 kts 227°
2026-04-16 15:33 57.97701 56.14274 1945 ft 147 kts 226°
2026-04-16 15:33 57.96969 56.12880 1760 ft 150 kts 226°
2026-04-16 15:33 57.96244 56.11484 1565 ft 148 kts 227°
2026-04-16 15:34 57.95535 56.10086 1348 ft 148 kts 226°
2026-04-16 15:34 57.94823 56.08667 1109 ft 149 kts 226°
2026-04-16 15:34 57.94083 56.07302 904 ft 149 kts 224°
2026-04-16 15:34 57.93377 56.05879 689 ft 149 kts 228°
2026-04-16 15:35 57.92660 56.04508 489 ft 149 kts 227°
2026-04-16 15:35 57.91962 56.03118 400 ft 145 kts 226°
2026-04-16 15:35 57.91301 56.01842 396 ft 110 kts 226°
2026-04-16 15:35 57.91001 56.01250 389 ft 30 kts 233°
2026-04-16 15:36 57.90944 56.01056 392 ft 12 kts 210°
2026-04-16 15:36 57.90917 56.01060 393 ft 1 kts 128°
2026-04-16 15:36 57.90916 56.01078 393 ft 1 kts 95°
2026-04-16 15:36 57.90928 56.01120 393 ft 9 kts 48°
2026-04-16 15:37 57.90971 56.01202 395 ft 9 kts 45°
2026-04-16 15:37 57.91013 56.01281 389 ft 9 kts 45°
2026-04-16 15:37 57.91055 56.01359 391 ft 8 kts 45°
2026-04-16 15:37 57.91096 56.01436 394 ft 9 kts 45°
2026-04-16 15:38 57.91171 56.01585 392 ft 17 kts 36°
2026-04-16 15:38 57.91271 56.01540 391 ft 17 kts 317°
2026-04-16 15:38 57.91355 56.01388 395 ft 16 kts 316°
2026-04-16 15:38 57.91412 56.01284 393 ft 8 kts 316°
2026-04-16 15:39 57.91450 56.01274 393 ft 6 kts 57°
2026-04-16 15:39 57.91476 56.01338 393 ft 6 kts 49°
2026-04-16 15:39 57.91505 56.01397 395 ft 6 kts 43°
2026-04-16 15:39 57.91535 56.01450 392 ft 6 kts 45°
2026-04-16 15:40 57.91564 56.01506 396 ft 7 kts 46°
2026-04-16 15:40 57.91611 56.01599 389 ft 10 kts 48°
2026-04-16 15:40 57.91647 56.01708 393 ft 10 kts 81°
2026-04-16 15:40 57.91683 56.01816 390 ft 10 kts 47°
2026-04-16 15:41 57.91730 56.01907 397 ft 10 kts 46°
2026-04-16 15:41 57.91775 56.01997 397 ft 9 kts 46°
2026-04-16 15:41 57.91820 56.02081 393 ft 9 kts 38°
2026-04-16 15:41 57.91872 56.02042 397 ft 8 kts 315°
2026-04-16 15:42 57.91876 56.02034 397 ft 0 kts 315°